B3355 ZSSS-ZWWW

Flight info

Callsign B3355
Flight time N/A
Altitude 36100
Route POMOK G330 UNTAN G345 OLRIS R343 HFE B208 ZHO H14 ZS H142 DOVOP W541 OVKAB W94 XFG W213 APESU W197 ANDIM B215 IBANO G470 QTV W99 FKG B215 WUR
Aircraft CL60/M-SBDE1E2E3FGHIJ1J4J5J7M3RWXYZ/LB1V1D1

Departure

Time 2026-04-27 00:09
Airport Shanghai Hongqiao International Airport (ZSSS)

Arrival

Time N/A
Airport Ürümqi Tianshan International Airport (ZWWW)
Time Latitude Longitude Altitude Speed Heading
2026-04-26 23:51 31.21026 121.32711 16 ft 0 kts 267°
2026-04-27 00:02 31.21027 121.32728 17 ft 2 kts 267°
2026-04-27 00:02 31.21028 121.32745 17 ft 2 kts 267°
2026-04-27 00:02 31.21028 121.32763 17 ft 2 kts 267°
2026-04-27 00:02 31.21029 121.32780 17 ft 2 kts 267°
2026-04-27 00:03 31.21030 121.32798 17 ft 2 kts 267°
2026-04-27 00:03 31.21031 121.32816 17 ft 2 kts 267°
2026-04-27 00:03 31.21032 121.32833 17 ft 2 kts 267°
2026-04-27 00:03 31.21032 121.32851 17 ft 2 kts 267°
2026-04-27 00:04 31.21033 121.32868 17 ft 2 kts 267°
2026-04-27 00:04 31.21034 121.32886 17 ft 2 kts 267°
2026-04-27 00:04 31.21032 121.32899 17 ft 1 kts 309°
2026-04-27 00:04 31.21024 121.32903 17 ft 0 kts 356°
2026-04-27 00:05 31.21021 121.32903 17 ft 0 kts 357°
2026-04-27 00:06 31.21027 121.32903 17 ft 3 kts 358°
2026-04-27 00:06 31.21058 121.32901 17 ft 5 kts 356°
2026-04-27 00:06 31.21110 121.32900 17 ft 8 kts 359°
2026-04-27 00:07 31.21177 121.32896 17 ft 10 kts 356°
2026-04-27 00:07 31.21252 121.32895 17 ft 11 kts 17°
2026-04-27 00:07 31.21288 121.32976 17 ft 12 kts 88°
2026-04-27 00:07 31.21290 121.33045 17 ft 0 kts 88°
2026-04-27 00:08 31.21291 121.33098 17 ft 12 kts 91°
2026-04-27 00:08 31.21225 121.33167 17 ft 12 kts 178°
2026-04-27 00:08 31.20962 121.33182 17 ft 81 kts 176°
2026-04-27 00:08 31.20124 121.33232 67 ft 149 kts 175°
2026-04-27 00:09 31.18976 121.33298 460 ft 180 kts 176°
2026-04-27 00:09 31.17681 121.33367 1125 ft 197 kts 177°
2026-04-27 00:09 31.16266 121.33430 1860 ft 215 kts 178°
2026-04-27 00:09 31.14668 121.33499 2503 ft 242 kts 178°
2026-04-27 00:10 31.12898 121.33575 2918 ft 267 kts 179°
2026-04-27 00:10 31.11018 121.33659 3790 ft 277 kts 179°
2026-04-27 00:10 31.09115 121.33733 4998 ft 275 kts 184°
2026-04-27 00:10 31.07276 121.33271 6072 ft 275 kts 206°
2026-04-27 00:11 31.05691 121.32048 7049 ft 276 kts 227°
2026-04-27 00:11 31.04619 121.30217 8016 ft 277 kts 250°
2026-04-27 00:11 31.04272 121.28055 8960 ft 278 kts 275°
2026-04-27 00:11 31.04590 121.25849 9876 ft 281 kts 283°
2026-04-27 00:12 31.05009 121.23605 10530 ft 296 kts 283°
2026-04-27 00:12 31.05496 121.21139 10763 ft 324 kts 284°
2026-04-27 00:12 31.06029 121.18511 11411 ft 336 kts 284°
2026-04-27 00:12 31.06568 121.15842 12203 ft 341 kts 283°
2026-04-27 00:13 31.07102 121.13193 13131 ft 340 kts 283°
2026-04-27 00:13 31.07640 121.10521 14073 ft 339 kts 283°
2026-04-27 00:13 31.08172 121.07867 14809 ft 343 kts 283°
2026-04-27 00:13 31.08716 121.05154 15551 ft 346 kts 283°
2026-04-27 00:14 31.09266 121.02409 16283 ft 349 kts 283°
2026-04-27 00:14 31.09810 120.99686 16961 ft 352 kts 283°
2026-04-27 00:14 31.10362 120.96913 17649 ft 354 kts 283°
2026-04-27 00:14 31.10921 120.94107 18321 ft 356 kts 283°
2026-04-27 00:15 31.11482 120.91286 18888 ft 361 kts 282°
2026-04-27 00:15 31.12046 120.88449 19512 ft 363 kts 283°
2026-04-27 00:15 31.12614 120.85583 20095 ft 365 kts 283°
2026-04-27 00:15 31.13189 120.82680 20637 ft 369 kts 282°
2026-04-27 00:16 31.13764 120.79769 21172 ft 372 kts 282°
2026-04-27 00:16 31.14345 120.76826 21659 ft 376 kts 282°
2026-04-27 00:16 31.14933 120.73846 22209 ft 377 kts 282°
2026-04-27 00:16 31.15516 120.70883 22698 ft 380 kts 282°
2026-04-27 00:17 31.16114 120.67841 23152 ft 383 kts 282°
2026-04-27 00:17 31.16704 120.64841 23641 ft 385 kts 282°
2026-04-27 00:17 31.17300 120.61802 24153 ft 386 kts 282°
2026-04-27 00:17 31.17903 120.58722 24652 ft 388 kts 282°
2026-04-27 00:18 31.18500 120.55668 25089 ft 390 kts 282°
2026-04-27 00:18 31.19105 120.52571 25483 ft 393 kts 281°
2026-04-27 00:18 31.19711 120.49463 25973 ft 393 kts 281°
2026-04-27 00:18 31.20315 120.46361 26382 ft 395 kts 282°
2026-04-27 00:19 31.20926 120.43217 26742 ft 398 kts 282°
2026-04-27 00:19 31.21537 120.40073 27166 ft 398 kts 282°
2026-04-27 00:19 31.22144 120.36945 27571 ft 399 kts 282°
2026-04-27 00:19 31.22755 120.33788 27887 ft 401 kts 281°
2026-04-27 00:20 31.23365 120.30634 28210 ft 403 kts 281°
2026-04-27 00:20 31.23986 120.27418 28561 ft 404 kts 281°
2026-04-27 00:20 31.24602 120.24222 28921 ft 405 kts 281°
2026-04-27 00:20 31.25222 120.21006 29243 ft 406 kts 281°
2026-04-27 00:21 31.25843 120.17779 29463 ft 408 kts 281°
2026-04-27 00:21 31.26466 120.14535 29734 ft 410 kts 281°
2026-04-27 00:21 31.27734 120.07916 29847 ft 421 kts 281°
2026-04-27 00:22 31.29023 120.01165 29866 ft 430 kts 281°
2026-04-27 00:22 31.29683 119.97706 29981 ft 431 kts 281°
2026-04-27 00:22 31.30336 119.94277 30109 ft 432 kts 282°
2026-04-27 00:23 31.31646 119.87378 30241 ft 436 kts 282°
2026-04-27 00:23 31.32298 119.83938 30358 ft 436 kts 281°
2026-04-27 00:23 31.32951 119.80489 30468 ft 436 kts 281°
2026-04-27 00:24 31.34264 119.73525 30609 ft 438 kts 282°
2026-04-27 00:24 31.34916 119.70059 30787 ft 437 kts 281°
2026-04-27 00:24 31.35574 119.66561 30891 ft 437 kts 282°
2026-04-27 00:25 31.36868 119.59658 31071 ft 437 kts 282°
2026-04-27 00:25 31.38171 119.52688 31216 ft 437 kts 282°
2026-04-27 00:26 31.38818 119.49217 31370 ft 436 kts 282°
2026-04-27 00:26 31.39466 119.45737 31511 ft 434 kts 281°
2026-04-27 00:26 31.40102 119.42320 31735 ft 431 kts 282°
2026-04-27 00:26 31.40731 119.38926 31989 ft 428 kts 282°
2026-04-27 00:27 31.41357 119.35548 32242 ft 426 kts 282°
2026-04-27 00:27 31.41983 119.32161 32491 ft 423 kts 282°
2026-04-27 00:27 31.42604 119.28797 32744 ft 421 kts 281°
2026-04-27 00:27 31.43222 119.25450 32998 ft 419 kts 281°
2026-04-27 00:28 31.43831 119.22139 33251 ft 417 kts 281°
2026-04-27 00:28 31.44441 119.18830 33508 ft 415 kts 282°
2026-04-27 00:28 31.45039 119.15573 33768 ft 413 kts 282°
2026-04-27 00:28 31.45640 119.12291 34025 ft 411 kts 282°
2026-04-27 00:29 31.46240 119.09014 34278 ft 409 kts 282°
2026-04-27 00:29 31.46826 119.05807 34525 ft 407 kts 282°
2026-04-27 00:29 31.47419 119.02553 34781 ft 406 kts 283°
2026-04-27 00:29 31.48006 118.99332 35032 ft 404 kts 282°
2026-04-27 00:30 31.48589 118.96124 35286 ft 402 kts 282°
2026-04-27 00:30 31.49160 118.92976 35535 ft 400 kts 282°
2026-04-27 00:30 31.49739 118.89788 35785 ft 398 kts 282°
2026-04-27 00:30 31.50310 118.86633 36025 ft 396 kts 283°
2026-04-27 00:31 31.51459 118.80274 36034 ft 402 kts 283°
2026-04-27 00:31 31.52612 118.73871 36033 ft 406 kts 282°
2026-04-27 00:32 31.53776 118.67384 36034 ft 410 kts 282°
2026-04-27 00:32 31.54954 118.60809 36030 ft 414 kts 282°
2026-04-27 00:33 31.56127 118.54239 36020 ft 416 kts 282°
2026-04-27 00:33 31.57314 118.47573 36022 ft 417 kts 283°
2026-04-27 00:34 31.58499 118.40891 36020 ft 418 kts 283°
2026-04-27 00:34 31.59672 118.34260 36024 ft 418 kts 282°
2026-04-27 00:35 31.60852 118.27567 36021 ft 418 kts 282°
2026-04-27 00:35 31.62023 118.20901 36023 ft 418 kts 282°
2026-04-27 00:36 31.63187 118.14256 36024 ft 419 kts 282°
2026-04-27 00:36 31.64359 118.07543 36025 ft 420 kts 282°
2026-04-27 00:37 31.65518 118.00880 36027 ft 420 kts 282°
2026-04-27 00:37 31.66682 117.94172 36020 ft 421 kts 282°
2026-04-27 00:38 31.67837 117.87485 36031 ft 420 kts 282°
2026-04-27 00:38 31.68990 117.80795 36025 ft 420 kts 282°
2026-04-27 00:39 31.70143 117.74082 36022 ft 420 kts 282°
2026-04-27 00:39 31.71296 117.67349 36022 ft 421 kts 282°
2026-04-27 00:40 31.72440 117.60639 36015 ft 421 kts 282°
2026-04-27 00:40 31.73587 117.53899 36022 ft 421 kts 282°
2026-04-27 00:41 31.74732 117.47137 36018 ft 422 kts 283°
2026-04-27 00:41 31.75874 117.40379 36019 ft 421 kts 282°
2026-04-27 00:42 31.77192 117.33678 36014 ft 421 kts 288°
2026-04-27 00:42 31.79717 117.27498 36013 ft 423 kts 301°
2026-04-27 00:43 31.83362 117.22075 36014 ft 426 kts 308°
2026-04-27 00:43 31.87204 117.16764 36011 ft 426 kts 307°
2026-04-27 00:44 31.91031 117.11462 36013 ft 426 kts 308°
2026-04-27 00:44 31.94853 117.06156 36011 ft 426 kts 307°
2026-04-27 00:45 31.98679 117.00841 36009 ft 425 kts 307°
2026-04-27 00:45 32.02501 116.95544 36010 ft 425 kts 308°
2026-04-27 00:46 32.06304 116.90266 36012 ft 424 kts 307°
2026-04-27 00:46 32.10146 116.84928 36020 ft 424 kts 307°
2026-04-27 00:47 32.13982 116.79592 36028 ft 424 kts 308°
2026-04-27 00:47 32.17810 116.74274 36028 ft 424 kts 308°
2026-04-27 00:48 32.21543 116.68865 36027 ft 423 kts 306°
2026-04-27 00:48 32.25217 116.63447 36023 ft 423 kts 306°
2026-04-27 00:49 32.28907 116.57997 36024 ft 423 kts 306°
2026-04-27 00:49 32.32579 116.52567 36020 ft 422 kts 306°
2026-04-27 00:50 32.38132 116.44437 36017 ft 423 kts 307°
2026-04-27 00:51 32.41900 116.39102 36021 ft 423 kts 307°
2026-04-27 00:51 32.45656 116.33775 36022 ft 423 kts 307°
2026-04-27 00:52 32.49430 116.28413 36023 ft 422 kts 306°
2026-04-27 00:52 32.53176 116.23082 36025 ft 422 kts 307°
2026-04-27 00:53 32.56916 116.17755 36022 ft 421 kts 306°
2026-04-27 00:53 32.60685 116.12412 36018 ft 422 kts 307°
2026-04-27 00:54 32.64446 116.07076 36018 ft 422 kts 307°
2026-04-27 00:54 32.68199 116.01740 36020 ft 422 kts 306°
2026-04-27 00:55 32.71973 115.96369 36011 ft 422 kts 306°
2026-04-27 00:55 32.75720 115.91027 36003 ft 421 kts 307°
2026-04-27 00:56 32.79443 115.85713 36008 ft 421 kts 306°
2026-04-27 00:56 32.83201 115.80341 36007 ft 421 kts 307°
2026-04-27 00:57 32.86952 115.74970 36007 ft 421 kts 307°
2026-04-27 00:57 32.90790 115.69657 36006 ft 421 kts 307°
2026-04-27 00:58 32.94661 115.64390 36005 ft 421 kts 308°
2026-04-27 00:58 32.98510 115.59146 36010 ft 420 kts 308°
2026-04-27 00:59 33.02378 115.53867 36008 ft 420 kts 308°
2026-04-27 00:59 33.06223 115.48610 36011 ft 420 kts 307°
2026-04-27 01:00 33.10072 115.43343 36012 ft 419 kts 307°
2026-04-27 01:00 33.13894 115.38103 36013 ft 419 kts 308°
2026-04-27 01:01 33.17725 115.32845 36013 ft 418 kts 307°
2026-04-27 01:01 33.21532 115.27609 36014 ft 418 kts 307°
2026-04-27 01:02 33.25325 115.22388 36015 ft 418 kts 307°
2026-04-27 01:02 33.29135 115.17134 36012 ft 417 kts 307°
2026-04-27 01:03 33.32924 115.11903 36013 ft 417 kts 307°
2026-04-27 01:03 33.36720 115.06654 36023 ft 417 kts 307°
2026-04-27 01:04 33.40495 115.01427 36027 ft 417 kts 307°
2026-04-27 01:04 33.44290 114.96163 36030 ft 416 kts 307°
2026-04-27 01:05 33.48077 114.90904 36033 ft 416 kts 307°
2026-04-27 01:05 33.51869 114.85628 36030 ft 416 kts 307°
2026-04-27 01:06 33.55633 114.80386 36033 ft 416 kts 307°
2026-04-27 01:06 33.59387 114.75150 36031 ft 416 kts 307°
2026-04-27 01:07 33.63145 114.69915 36032 ft 415 kts 307°
2026-04-27 01:07 33.66423 114.64291 36032 ft 410 kts 295°
2026-04-27 01:08 33.68460 114.57905 36028 ft 409 kts 288°
2026-04-27 01:08 33.70230 114.51435 36028 ft 409 kts 288°
2026-04-27 01:09 33.71977 114.44949 36030 ft 409 kts 287°
2026-04-27 01:09 33.73709 114.38430 36032 ft 409 kts 288°
2026-04-27 01:10 33.75437 114.31912 36031 ft 409 kts 287°
2026-04-27 01:10 33.77156 114.25414 36034 ft 409 kts 287°
2026-04-27 01:11 33.78889 114.18848 36030 ft 409 kts 287°
2026-04-27 01:11 33.80601 114.12345 36031 ft 409 kts 287°
2026-04-27 01:12 33.82310 114.05845 36029 ft 408 kts 288°
2026-04-27 01:12 33.84046 113.99396 36031 ft 408 kts 287°
2026-04-27 01:13 33.85797 113.92889 36032 ft 408 kts 287°
2026-04-27 01:13 33.87527 113.86442 36039 ft 408 kts 287°
2026-04-27 01:14 33.89287 113.79869 36047 ft 408 kts 288°
2026-04-27 01:14 33.91008 113.73424 36051 ft 409 kts 288°
2026-04-27 01:15 33.92756 113.66864 36050 ft 409 kts 287°
2026-04-27 01:15 33.94498 113.60310 36050 ft 409 kts 287°
2026-04-27 01:16 33.96227 113.53789 36056 ft 409 kts 287°
2026-04-27 01:16 33.97944 113.47301 36055 ft 409 kts 288°
2026-04-27 01:17 33.99665 113.40778 36055 ft 409 kts 287°
2026-04-27 01:17 34.01385 113.34241 36054 ft 409 kts 287°
2026-04-27 01:18 34.03120 113.27671 36058 ft 409 kts 287°
2026-04-27 01:18 34.04858 113.21198 36056 ft 408 kts 287°
2026-04-27 01:19 34.06607 113.14667 36061 ft 407 kts 287°
2026-04-27 01:19 34.08344 113.08166 36064 ft 407 kts 287°
2026-04-27 01:20 34.10079 113.01654 36068 ft 408 kts 287°
2026-04-27 01:20 34.11806 112.95156 36074 ft 408 kts 287°
2026-04-27 01:21 34.13520 112.88658 36073 ft 407 kts 285°
2026-04-27 01:21 34.14381 112.81953 36082 ft 408 kts 272°
2026-04-27 01:22 34.13927 112.75095 36087 ft 410 kts 266°
2026-04-27 01:22 34.13286 112.68230 36079 ft 410 kts 266°
2026-04-27 01:23 34.12647 112.61404 36091 ft 411 kts 266°
2026-04-27 01:23 34.11998 112.54530 36089 ft 412 kts 266°
2026-04-27 01:24 34.11347 112.47664 36093 ft 412 kts 266°
2026-04-27 01:24 34.10706 112.40795 36107 ft 412 kts 267°
2026-04-27 01:25 34.10075 112.33936 36111 ft 413 kts 266°
2026-04-27 01:25 34.09466 112.27082 36113 ft 413 kts 266°
2026-04-27 01:26 34.08865 112.20197 36114 ft 413 kts 266°
2026-04-27 01:26 34.08262 112.13319 36122 ft 413 kts 266°
2026-04-27 01:27 34.07656 112.06431 36130 ft 413 kts 267°
2026-04-27 01:27 34.07045 111.99528 36131 ft 414 kts 266°
2026-04-27 01:28 34.06433 111.92657 36135 ft 414 kts 266°
2026-04-27 01:28 34.05817 111.85794 36137 ft 414 kts 266°
2026-04-27 01:29 34.05191 111.78861 36133 ft 415 kts 266°
2026-04-27 01:29 34.04565 111.71972 36139 ft 415 kts 266°
2026-04-27 01:30 34.03933 111.65065 36143 ft 416 kts 266°
2026-04-27 01:30 34.03298 111.58160 36149 ft 416 kts 266°
2026-04-27 01:31 34.02652 111.51189 36160 ft 417 kts 266°
2026-04-27 01:31 34.02007 111.44273 36169 ft 416 kts 266°
2026-04-27 01:32 34.01358 111.37345 36177 ft 416 kts 266°
2026-04-27 01:32 34.00706 111.30437 36194 ft 417 kts 265°
2026-04-27 01:33 34.00044 111.23457 36210 ft 417 kts 265°
2026-04-27 01:33 33.99384 111.16553 36183 ft 418 kts 265°
2026-04-27 01:34 33.98716 111.09602 36163 ft 418 kts 265°
2026-04-27 01:34 33.98049 111.02708 36161 ft 418 kts 265°
2026-04-27 01:35 33.97375 110.95777 36154 ft 419 kts 265°
2026-04-27 01:35 33.96693 110.88803 36159 ft 419 kts 265°
2026-04-27 01:36 33.96012 110.81877 36160 ft 419 kts 265°
2026-04-27 01:36 33.95324 110.74931 36167 ft 419 kts 265°
2026-04-27 01:37 33.94633 110.67985 36169 ft 420 kts 265°
2026-04-27 01:37 33.93933 110.60995 36169 ft 420 kts 265°
2026-04-27 01:38 33.93269 110.54005 36165 ft 421 kts 266°
2026-04-27 01:38 33.92627 110.46985 36169 ft 421 kts 266°
2026-04-27 01:39 33.91981 110.39970 36173 ft 421 kts 266°
2026-04-27 01:39 33.91336 110.33006 36180 ft 421 kts 265°
2026-04-27 01:40 33.90682 110.25998 36178 ft 421 kts 265°
2026-04-27 01:40 33.90025 110.18995 36180 ft 422 kts 266°
2026-04-27 01:41 33.89366 110.12026 36186 ft 422 kts 265°
2026-04-27 01:41 33.88699 110.05006 36195 ft 422 kts 265°
2026-04-27 01:42 33.88097 109.98026 36193 ft 421 kts 269°
2026-04-27 01:42 33.88619 109.91023 36196 ft 420 kts 283°
2026-04-27 01:43 33.90474 109.84410 36195 ft 422 kts 290°
2026-04-27 01:43 33.92624 109.77844 36188 ft 422 kts 290°
2026-04-27 01:44 33.94773 109.71256 36193 ft 422 kts 290°
2026-04-27 01:44 33.96898 109.64722 36202 ft 421 kts 290°
2026-04-27 01:45 33.99036 109.58134 36217 ft 421 kts 290°
2026-04-27 01:45 34.01160 109.51572 36228 ft 420 kts 290°
2026-04-27 01:46 34.03279 109.45013 36227 ft 421 kts 290°
2026-04-27 01:46 34.05401 109.38425 36214 ft 421 kts 290°
2026-04-27 01:47 34.07517 109.31843 36203 ft 422 kts 289°
2026-04-27 01:47 34.09619 109.25289 36210 ft 421 kts 290°
2026-04-27 01:48 34.11735 109.18676 36209 ft 422 kts 289°
2026-04-27 01:48 34.13835 109.12099 36204 ft 422 kts 289°
2026-04-27 01:49 34.15931 109.05522 36193 ft 422 kts 289°
2026-04-27 01:49 34.18094 108.98954 36201 ft 423 kts 293°
2026-04-27 01:50 34.21180 108.92905 36200 ft 427 kts 304°
2026-04-27 01:50 34.25406 108.87783 36182 ft 436 kts 317°
2026-04-27 01:51 34.30613 108.83915 36176 ft 445 kts 329°
2026-04-27 01:51 34.36617 108.81580 36171 ft 456 kts 340°
2026-04-27 01:52 34.42815 108.79884 36176 ft 455 kts 340°
2026-04-27 01:52 34.48984 108.78191 36185 ft 456 kts 340°
2026-04-27 01:53 34.55195 108.76487 36192 ft 455 kts 340°
2026-04-27 01:53 34.61350 108.74794 36210 ft 455 kts 340°
2026-04-27 01:54 34.67556 108.73084 36227 ft 454 kts 339°
2026-04-27 01:54 34.73452 108.70592 36229 ft 441 kts 327°
2026-04-27 01:55 34.78529 108.66592 36224 ft 431 kts 315°
2026-04-27 01:55 34.82692 108.61457 36221 ft 426 kts 308°
2026-04-27 01:56 34.88615 108.53462 36243 ft 424 kts 308°
2026-04-27 01:56 34.92543 108.48152 36266 ft 422 kts 308°
2026-04-27 01:57 34.96480 108.42820 36277 ft 423 kts 308°
2026-04-27 01:57 35.00412 108.37486 36285 ft 423 kts 307°
2026-04-27 01:58 35.04330 108.32161 36276 ft 424 kts 307°
2026-04-27 01:58 35.08298 108.26761 36267 ft 424 kts 307°
2026-04-27 01:59 35.12213 108.21426 36276 ft 423 kts 307°
2026-04-27 01:59 35.16128 108.16080 36268 ft 422 kts 307°
2026-04-27 02:00 35.20043 108.10726 36268 ft 422 kts 307°
2026-04-27 02:00 35.23954 108.05369 36274 ft 422 kts 307°
2026-04-27 02:01 35.27858 108.00015 36268 ft 422 kts 307°
2026-04-27 02:01 35.31770 107.94640 36280 ft 423 kts 307°
2026-04-27 02:02 35.35688 107.89250 36295 ft 423 kts 307°
2026-04-27 02:02 35.39593 107.83896 36296 ft 423 kts 307°
2026-04-27 02:03 35.43533 107.78488 36307 ft 423 kts 307°
2026-04-27 02:03 35.47734 107.73428 36307 ft 430 kts 316°
2026-04-27 02:04 35.52863 107.69524 36307 ft 442 kts 328°
2026-04-27 02:04 35.58800 107.67138 36301 ft 455 kts 340°
2026-04-27 02:05 35.65009 107.65463 36307 ft 452 kts 337°
2026-04-27 02:05 35.70720 107.62587 36307 ft 438 kts 324°
2026-04-27 02:06 35.75538 107.58231 36309 ft 426 kts 311°
2026-04-27 02:06 35.79303 107.52669 36302 ft 417 kts 298°
2026-04-27 02:07 35.81825 107.46320 36316 ft 411 kts 287°
2026-04-27 02:07 35.83437 107.39548 36315 ft 412 kts 284°
2026-04-27 02:08 35.84985 107.32791 36324 ft 413 kts 284°
2026-04-27 02:08 35.86536 107.25965 36324 ft 414 kts 284°
2026-04-27 02:09 35.88064 107.19133 36333 ft 414 kts 283°
2026-04-27 02:09 35.89584 107.12314 36334 ft 414 kts 284°
2026-04-27 02:10 35.91011 107.05428 36334 ft 414 kts 282°
2026-04-27 02:10 35.92385 106.98557 36341 ft 414 kts 282°
2026-04-27 02:11 35.93758 106.91669 36339 ft 415 kts 282°
2026-04-27 02:11 35.95127 106.84785 36347 ft 414 kts 282°
2026-04-27 02:12 35.96493 106.77901 36346 ft 415 kts 282°
2026-04-27 02:12 35.97859 106.70987 36356 ft 414 kts 282°
2026-04-27 02:13 35.99249 106.64116 36360 ft 415 kts 282°
2026-04-27 02:13 36.00658 106.57213 36362 ft 415 kts 283°
2026-04-27 02:14 36.02059 106.50330 36372 ft 415 kts 283°
2026-04-27 02:14 36.03451 106.43465 36369 ft 414 kts 283°
2026-04-27 02:15 36.04847 106.36558 36375 ft 414 kts 283°
2026-04-27 02:15 36.06236 106.29665 36377 ft 415 kts 282°
2026-04-27 02:16 36.07615 106.22800 36384 ft 415 kts 282°
2026-04-27 02:16 36.09128 106.15901 36384 ft 415 kts 283°
2026-04-27 02:17 36.10669 106.09008 36373 ft 415 kts 284°
2026-04-27 02:17 36.12201 106.02135 36389 ft 415 kts 284°
2026-04-27 02:18 36.13725 105.95280 36385 ft 416 kts 283°
2026-04-27 02:18 36.15245 105.88419 36386 ft 415 kts 283°
2026-04-27 02:19 36.16775 105.81492 36379 ft 415 kts 284°
2026-04-27 02:19 36.18288 105.74622 36376 ft 415 kts 283°
2026-04-27 02:20 36.19794 105.67765 36378 ft 415 kts 283°
2026-04-27 02:20 36.21299 105.60894 36380 ft 414 kts 283°
2026-04-27 02:21 36.22800 105.54015 36379 ft 414 kts 283°
2026-04-27 02:21 36.24295 105.47146 36383 ft 414 kts 283°
2026-04-27 02:22 36.25778 105.40308 36380 ft 414 kts 283°
2026-04-27 02:22 36.27270 105.33411 36378 ft 414 kts 283°
2026-04-27 02:23 36.28752 105.26540 36375 ft 414 kts 282°
2026-04-27 02:23 36.30228 105.19672 36372 ft 414 kts 282°
2026-04-27 02:24 36.31707 105.12772 36371 ft 414 kts 283°
2026-04-27 02:24 36.33176 105.05892 36373 ft 414 kts 282°
2026-04-27 02:25 36.34641 104.99014 36375 ft 414 kts 283°
2026-04-27 02:25 36.36099 104.92144 36380 ft 413 kts 282°
2026-04-27 02:26 36.37562 104.85232 36375 ft 413 kts 282°
2026-04-27 02:26 36.39010 104.78372 36381 ft 413 kts 282°
2026-04-27 02:27 36.40452 104.71514 36372 ft 413 kts 282°
2026-04-27 02:27 36.41895 104.64638 36383 ft 413 kts 282°
2026-04-27 02:28 36.43333 104.57760 36384 ft 412 kts 282°
2026-04-27 02:28 36.44770 104.50872 36385 ft 412 kts 282°
2026-04-27 02:29 36.46199 104.43996 36381 ft 412 kts 282°
2026-04-27 02:29 36.47632 104.37093 36385 ft 412 kts 283°
2026-04-27 02:30 36.49791 104.30486 36385 ft 419 kts 294°
2026-04-27 02:30 36.52527 104.24107 36385 ft 418 kts 294°
2026-04-27 02:31 36.55234 104.17773 36390 ft 417 kts 294°
2026-04-27 02:31 36.57959 104.11380 36387 ft 417 kts 294°
2026-04-27 02:32 36.60665 104.05019 36391 ft 417 kts 293°
2026-04-27 02:32 36.63405 103.98665 36392 ft 416 kts 295°
2026-04-27 02:33 36.66154 103.92358 36402 ft 415 kts 294°
2026-04-27 02:33 36.68905 103.86032 36401 ft 415 kts 294°
2026-04-27 02:34 36.71657 103.79691 36415 ft 415 kts 294°
2026-04-27 02:34 36.74391 103.73377 36420 ft 415 kts 294°
2026-04-27 02:35 36.77140 103.67017 36416 ft 416 kts 294°
2026-04-27 02:35 36.79870 103.60688 36444 ft 415 kts 294°
2026-04-27 02:36 36.82600 103.54346 36446 ft 414 kts 294°
2026-04-27 02:36 36.85314 103.48030 36458 ft 413 kts 294°
2026-04-27 02:37 36.88007 103.41750 36464 ft 413 kts 294°
2026-04-27 02:37 36.90702 103.35451 36477 ft 412 kts 294°
2026-04-27 02:38 36.93403 103.29134 36465 ft 412 kts 294°
2026-04-27 02:38 36.96398 103.23036 36476 ft 415 kts 297°
2026-04-27 02:39 36.99490 103.16918 36472 ft 415 kts 297°
2026-04-27 02:39 37.02558 103.10833 36462 ft 414 kts 297°
2026-04-27 02:40 37.05621 103.04744 36473 ft 414 kts 297°
2026-04-27 02:40 37.08665 102.98682 36478 ft 413 kts 296°
2026-04-27 02:41 37.11718 102.92587 36444 ft 413 kts 296°
2026-04-27 02:41 37.14755 102.86514 36455 ft 412 kts 297°
2026-04-27 02:42 37.17795 102.80421 36448 ft 412 kts 296°
2026-04-27 02:42 37.20818 102.74348 36453 ft 412 kts 297°
2026-04-27 02:43 37.23854 102.68241 36437 ft 412 kts 296°
2026-04-27 02:43 37.26873 102.62156 36440 ft 412 kts 296°
2026-04-27 02:44 37.29893 102.56059 36448 ft 411 kts 297°
2026-04-27 02:44 37.32914 102.49947 36452 ft 410 kts 297°
2026-04-27 02:45 37.35666 102.43724 36438 ft 404 kts 288°
2026-04-27 02:45 37.37207 102.37056 36440 ft 401 kts 281°
2026-04-27 02:46 37.38553 102.30226 36456 ft 402 kts 281°
2026-04-27 02:46 37.39891 102.23412 36467 ft 401 kts 281°
2026-04-27 02:47 37.41220 102.16623 36461 ft 401 kts 281°
2026-04-27 02:47 37.42544 102.09834 36470 ft 401 kts 281°
2026-04-27 02:48 37.43866 102.03030 36466 ft 401 kts 281°
2026-04-27 02:48 37.45177 101.96259 36473 ft 400 kts 281°
2026-04-27 02:49 37.46493 101.89438 36482 ft 400 kts 281°
2026-04-27 02:49 37.47797 101.82655 36473 ft 401 kts 280°
2026-04-27 02:50 37.49101 101.75850 36484 ft 401 kts 281°
2026-04-27 02:50 37.50496 101.69061 36468 ft 403 kts 285°
2026-04-27 02:51 37.52862 101.62669 36500 ft 406 kts 292°
2026-04-27 02:51 37.55439 101.56323 36512 ft 406 kts 292°
2026-04-27 02:52 37.57991 101.50019 36526 ft 406 kts 292°
2026-04-27 02:52 37.60542 101.43703 36545 ft 406 kts 292°
2026-04-27 02:53 37.63110 101.37329 36568 ft 406 kts 292°
2026-04-27 02:53 37.65677 101.31006 36580 ft 407 kts 293°
2026-04-27 02:54 37.68436 101.24774 36570 ft 407 kts 294°
2026-04-27 02:54 37.71176 101.18589 36574 ft 405 kts 293°
2026-04-27 02:55 37.73922 101.12376 36589 ft 405 kts 293°
2026-04-27 02:55 37.76665 101.06158 36594 ft 404 kts 294°
2026-04-27 02:56 37.79393 100.99965 36604 ft 404 kts 293°
2026-04-27 02:56 37.82102 100.93797 36597 ft 404 kts 293°
2026-04-27 02:57 37.84821 100.87552 36597 ft 404 kts 293°
2026-04-27 02:57 37.87518 100.81319 36598 ft 404 kts 294°
2026-04-27 02:58 37.90215 100.75075 36627 ft 404 kts 293°
2026-04-27 02:58 37.92891 100.68869 36639 ft 403 kts 293°
2026-04-27 02:59 37.95568 100.62648 36648 ft 402 kts 293°
2026-04-27 02:59 37.98245 100.56413 36630 ft 402 kts 293°
2026-04-27 03:00 38.00902 100.50213 36638 ft 402 kts 293°
2026-04-27 03:00 38.03566 100.43985 36620 ft 403 kts 293°
2026-04-27 03:01 38.06227 100.37750 36604 ft 402 kts 293°
2026-04-27 03:01 38.08883 100.31515 36581 ft 403 kts 293°
2026-04-27 03:02 38.11533 100.25284 36586 ft 403 kts 293°
2026-04-27 03:02 38.14180 100.19047 36622 ft 403 kts 292°
2026-04-27 03:03 38.18152 100.09664 36604 ft 403 kts 292°
2026-04-27 03:04 38.20796 100.03404 36633 ft 402 kts 292°
2026-04-27 03:04 38.23498 99.97152 36609 ft 404 kts 293°
2026-04-27 03:05 38.26260 99.90873 36576 ft 405 kts 294°
2026-04-27 03:05 38.29005 99.84617 36592 ft 405 kts 294°
2026-04-27 03:06 38.31745 99.78361 36595 ft 406 kts 293°
2026-04-27 03:06 38.34493 99.72072 36577 ft 407 kts 293°
2026-04-27 03:07 38.37230 99.65794 36589 ft 407 kts 293°
2026-04-27 03:07 38.39963 99.59514 36575 ft 408 kts 294°
2026-04-27 03:08 38.42703 99.53206 36578 ft 408 kts 293°
2026-04-27 03:08 38.45454 99.46858 36596 ft 409 kts 294°
2026-04-27 03:09 38.48193 99.40525 36582 ft 410 kts 293°
2026-04-27 03:09 38.50962 99.34109 36561 ft 411 kts 292°
2026-04-27 03:10 38.53705 99.27742 36525 ft 412 kts 293°
2026-04-27 03:10 38.56457 99.21342 36515 ft 412 kts 293°
2026-04-27 03:11 38.59204 99.14941 36536 ft 412 kts 293°
2026-04-27 03:11 38.61939 99.08553 36580 ft 412 kts 293°
2026-04-27 03:12 38.64683 99.02129 36598 ft 413 kts 293°
2026-04-27 03:12 38.67445 98.95653 36601 ft 414 kts 293°
2026-04-27 03:13 38.70202 98.89172 36558 ft 415 kts 293°
2026-04-27 03:13 38.72965 98.82667 36522 ft 416 kts 294°
2026-04-27 03:14 38.75703 98.76206 36543 ft 416 kts 293°
2026-04-27 03:14 38.78453 98.69704 36537 ft 417 kts 294°
2026-04-27 03:15 38.81211 98.63171 36582 ft 417 kts 293°
2026-04-27 03:15 38.83963 98.56638 36617 ft 417 kts 293°
2026-04-27 03:16 38.86700 98.50124 36627 ft 418 kts 293°
2026-04-27 03:16 38.89452 98.43562 36590 ft 419 kts 294°
2026-04-27 03:17 38.92199 98.37000 36556 ft 419 kts 294°
2026-04-27 03:17 38.94959 98.30389 36523 ft 421 kts 293°
2026-04-27 03:18 38.97719 98.23767 36510 ft 422 kts 293°
2026-04-27 03:18 39.00476 98.17134 36526 ft 422 kts 294°
2026-04-27 03:19 39.03222 98.10519 36560 ft 422 kts 293°
2026-04-27 03:19 39.05977 98.03867 36578 ft 423 kts 293°
2026-04-27 03:20 39.08740 97.97179 36596 ft 425 kts 293°
2026-04-27 03:20 39.10128 97.93817 36759 ft 423 kts 294°
2026-04-27 03:20 39.11501 97.90484 36608 ft 427 kts 293°
2026-04-27 03:20 39.12883 97.87129 36478 ft 424 kts 294°
2026-04-27 03:21 39.14263 97.83772 36486 ft 426 kts 293°
2026-04-27 03:21 39.17039 97.77010 36495 ft 429 kts 294°
2026-04-27 03:22 39.19834 97.70186 36476 ft 430 kts 294°
2026-04-27 03:22 39.22617 97.63378 36477 ft 430 kts 294°
2026-04-27 03:23 39.25358 97.56612 36481 ft 430 kts 294°